Powrót do katalogu

CZ-2C DEB

AktywnyPO
NORAD 40265·DEBRIS·🇨🇳 China

Wystrzelony Sep 28, 2014 z Jiuquan Satellite Launch Center

Loading…

Następne Przeloty (najbliższe 24 godziny)

TLE

ŚwieżeSource: Space-Track

Epoka: Sep 14, 2026, 02:38 UTC

1 40265U 14059E   26257.11040374  .00001340  00000-0  43878-3 0  9999
2 40265  97.9200 323.0754 0161531 206.9640 152.3086 14.32793365620897

Śledź CZ-2C DEB w czasie rzeczywistym z AllMySat

Download on the App Store